THY1NS LTFM-LKPR

Flight info

Callsign THY1NS
Flight time 2h 21m
Altitude 40000
Route IBLAX1D/35L IBLAX P727 BGS L622 GONGO DCT KOMAN DCT BUXLE DCT BUDOP DCT AMRAX DCT LALES DCT KATQA DCT TUMKA DCT VLM
Aircraft A359/H-SDE2E3GHIJ3J4J5LM1ORWXY/LB1D1

Departure

Time 2026-05-06 19:19
Airport İstanbul Airport (LTFM)

Arrival

Time 2026-05-06 21:41
Airport Václav Havel Airport Prague (LKPR)
Time Latitude Longitude Altitude Speed Heading
2026-05-06 18:06 41.26647 28.73765 340 ft 0 kts 272°
2026-05-06 18:57 41.26647 28.73766 340 ft 2 kts 272°
2026-05-06 18:58 41.26646 28.73799 338 ft 4 kts 277°
2026-05-06 18:58 41.26641 28.73834 335 ft 4 kts 287°
2026-05-06 18:58 41.26631 28.73866 335 ft 4 kts 314°
2026-05-06 18:58 41.26615 28.73879 335 ft 0 kts 359°
2026-05-06 19:03 41.26631 28.73878 336 ft 8 kts 359°
2026-05-06 19:03 41.26724 28.73876 337 ft 18 kts 359°
2026-05-06 19:04 41.26791 28.73874 336 ft 10 kts 359°
2026-05-06 19:04 41.26870 28.73872 336 ft 13 kts 359°
2026-05-06 19:04 41.26957 28.73870 340 ft 2 kts 359°
2026-05-06 19:04 41.26962 28.73870 337 ft 4 kts 359°
2026-05-06 19:05 41.26991 28.73869 335 ft 8 kts 359°
2026-05-06 19:05 41.27042 28.73832 335 ft 11 kts 298°
2026-05-06 19:05 41.27050 28.73716 339 ft 14 kts 270°
2026-05-06 19:05 41.27050 28.73571 337 ft 17 kts 270°
2026-05-06 19:06 41.27047 28.73402 336 ft 20 kts 268°
2026-05-06 19:06 41.27043 28.73212 340 ft 20 kts 269°
2026-05-06 19:06 41.27041 28.73094 337 ft 13 kts 269°
2026-05-06 19:06 41.27027 28.73002 335 ft 8 kts 232°
2026-05-06 19:07 41.26963 28.72973 338 ft 11 kts 181°
2026-05-06 19:07 41.26874 28.72973 340 ft 14 kts 180°
2026-05-06 19:07 41.26786 28.72989 335 ft 13 kts 174°
2026-05-06 19:07 41.26725 28.72970 336 ft 5 kts 234°
2026-05-06 19:08 41.26718 28.72922 337 ft 7 kts 265°
2026-05-06 19:08 41.26716 28.72846 337 ft 10 kts 269°
2026-05-06 19:08 41.26714 28.72735 340 ft 14 kts 269°
2026-05-06 19:08 41.26712 28.72621 337 ft 13 kts 269°
2026-05-06 19:09 41.26720 28.72534 338 ft 7 kts 303°
2026-05-06 19:09 41.26766 28.72515 336 ft 1 kts 357°
2026-05-06 19:10 41.26829 28.72511 337 ft 38 kts 358°
2026-05-06 19:10 41.27295 28.72501 339 ft 65 kts 359°
2026-05-06 19:10 41.27475 28.72497 336 ft 12 kts 359°
2026-05-06 19:10 41.27566 28.72495 335 ft 14 kts 359°
2026-05-06 19:11 41.27648 28.72493 336 ft 4 kts 359°
2026-05-06 19:11 41.27686 28.72492 336 ft 7 kts 359°
2026-05-06 19:11 41.27761 28.72490 337 ft 15 kts 359°
2026-05-06 19:11 41.27881 28.72487 338 ft 18 kts 359°
2026-05-06 19:12 41.28013 28.72485 335 ft 20 kts 359°
2026-05-06 19:12 41.28151 28.72482 336 ft 19 kts 359°
2026-05-06 19:12 41.28280 28.72450 336 ft 20 kts 343°
2026-05-06 19:12 41.28357 28.72402 340 ft 0 kts 329°
2026-05-06 19:13 41.28384 28.72380 339 ft 11 kts 328°
2026-05-06 19:13 41.28453 28.72317 335 ft 10 kts 311°
2026-05-06 19:13 41.28432 28.72250 335 ft 10 kts 199°
2026-05-06 19:14 41.28337 28.72250 336 ft 17 kts 178°
2026-05-06 19:14 41.28199 28.72252 337 ft 22 kts 179°
2026-05-06 19:14 41.28036 28.72255 338 ft 24 kts 179°
2026-05-06 19:14 41.27866 28.72261 337 ft 25 kts 178°
2026-05-06 19:15 41.27691 28.72265 335 ft 26 kts 180°
2026-05-06 19:15 41.27512 28.72270 336 ft 26 kts 180°
2026-05-06 19:15 41.27328 28.72272 338 ft 24 kts 179°
2026-05-06 19:15 41.27170 28.72277 337 ft 23 kts 179°
2026-05-06 19:16 41.27004 28.72280 338 ft 24 kts 179°
2026-05-06 19:16 41.26833 28.72284 338 ft 25 kts 179°
2026-05-06 19:16 41.26655 28.72289 338 ft 26 kts 179°
2026-05-06 19:16 41.26498 28.72293 338 ft 19 kts 179°
2026-05-06 19:17 41.26380 28.72296 340 ft 14 kts 179°
2026-05-06 19:17 41.26275 28.72298 335 ft 15 kts 180°
2026-05-06 19:17 41.26258 28.72298 335 ft 4 kts 180°
2026-05-06 19:17 41.26207 28.72357 337 ft 14 kts 105°
2026-05-06 19:18 41.26211 28.72490 335 ft 12 kts 77°
2026-05-06 19:18 41.26275 28.72525 339 ft 11 kts 358°
2026-05-06 19:18 41.26365 28.72524 335 ft 18 kts 359°
2026-05-06 19:18 41.26712 28.72514 337 ft 86 kts 359°
2026-05-06 19:19 41.27535 28.72495 338 ft 148 kts 359°
2026-05-06 19:19 41.28733 28.72430 520 ft 186 kts 360°
2026-05-06 19:19 41.30036 28.72339 1287 ft 186 kts 357°
2026-05-06 19:19 41.31322 28.72341 2096 ft 191 kts
2026-05-06 19:20 41.32754 28.72395 2400 ft 221 kts
2026-05-06 19:20 41.34402 28.72448 2780 ft 248 kts
2026-05-06 19:20 41.36155 28.72487 3592 ft 253 kts 359°
2026-05-06 19:20 41.37909 28.72426 4529 ft 252 kts 350°
2026-05-06 19:21 41.39561 28.71725 5464 ft 249 kts 335°
2026-05-06 19:21 41.41126 28.70743 6437 ft 249 kts 334°
2026-05-06 19:21 41.42692 28.69724 7341 ft 252 kts 334°
2026-05-06 19:21 41.44287 28.68690 8208 ft 257 kts 334°
2026-05-06 19:22 41.45912 28.67634 9115 ft 263 kts 333°
2026-05-06 19:22 41.47537 28.66464 9989 ft 267 kts 332°
2026-05-06 19:22 41.49209 28.65252 10600 ft 284 kts 332°
2026-05-06 19:22 41.51012 28.63936 10944 ft 307 kts 332°
2026-05-06 19:23 41.52926 28.62527 11524 ft 319 kts 332°
2026-05-06 19:23 41.54889 28.61075 12345 ft 325 kts 332°
2026-05-06 19:23 41.56873 28.59603 13197 ft 329 kts 332°
2026-05-06 19:23 41.58882 28.58111 14053 ft 332 kts 332°
2026-05-06 19:24 41.60913 28.56601 14813 ft 336 kts 332°
2026-05-06 19:24 41.62965 28.55074 15585 ft 339 kts 332°
2026-05-06 19:24 41.65034 28.53533 16350 ft 342 kts 332°
2026-05-06 19:24 41.67121 28.51977 17113 ft 345 kts 332°
2026-05-06 19:25 41.69229 28.50405 17887 ft 349 kts 332°
2026-05-06 19:25 41.71314 28.48849 18619 ft 352 kts 332°
2026-05-06 19:25 41.72898 28.47666 19084 ft 355 kts 332°
2026-05-06 19:25 41.75070 28.46043 19758 ft 359 kts 332°
2026-05-06 19:26 41.77265 28.44400 20421 ft 364 kts 332°
2026-05-06 19:26 41.79478 28.42744 21162 ft 365 kts 332°
2026-05-06 19:26 41.81702 28.41077 21870 ft 368 kts 332°
2026-05-06 19:26 41.83949 28.39392 22534 ft 372 kts 332°
2026-05-06 19:27 41.86219 28.37688 23207 ft 376 kts 332°
2026-05-06 19:27 41.88483 28.35988 23820 ft 379 kts 332°
2026-05-06 19:27 41.90794 28.34251 24398 ft 382 kts 332°
2026-05-06 19:27 41.93122 28.32499 25005 ft 384 kts 332°
2026-05-06 19:28 41.95461 28.30704 25428 ft 392 kts 330°
2026-05-06 19:28 41.97680 28.28549 25957 ft 397 kts 321°
2026-05-06 19:28 41.99624 28.25894 26590 ft 400 kts 313°
2026-05-06 19:28 42.01353 28.22950 27194 ft 403 kts 309°
2026-05-06 19:29 42.02965 28.19851 27774 ft 406 kts 307°
2026-05-06 19:29 42.04526 28.16670 28330 ft 409 kts 306°
2026-05-06 19:29 42.06081 28.13450 28894 ft 411 kts 306°
2026-05-06 19:29 42.07647 28.10223 29412 ft 413 kts 307°
2026-05-06 19:30 42.09236 28.06987 29944 ft 415 kts 307°
2026-05-06 19:30 42.10842 28.03747 30416 ft 418 kts 307°
2026-05-06 19:30 42.12465 28.00497 30892 ft 417 kts 307°
2026-05-06 19:30 42.14091 27.97252 31354 ft 419 kts 307°
2026-05-06 19:31 42.15727 27.93990 31734 ft 421 kts 307°
2026-05-06 19:31 42.17369 27.90714 32130 ft 423 kts 307°
2026-05-06 19:31 42.20757 27.84179 32883 ft 425 kts 312°
2026-05-06 19:32 42.22766 27.81259 33245 ft 425 kts 319°
2026-05-06 19:32 42.25064 27.78761 33579 ft 425 kts 327°
2026-05-06 19:32 42.27580 27.76671 34020 ft 424 kts 330°
2026-05-06 19:32 42.30154 27.74703 34289 ft 427 kts 332°
2026-05-06 19:33 42.32768 27.72783 34488 ft 430 kts 332°
2026-05-06 19:33 42.35419 27.70868 34698 ft 433 kts 332°
2026-05-06 19:33 42.38089 27.68944 34987 ft 434 kts 332°
2026-05-06 19:33 42.40749 27.67018 35300 ft 435 kts 332°
2026-05-06 19:34 42.43419 27.65074 35594 ft 436 kts 332°
2026-05-06 19:34 42.46088 27.63120 35865 ft 437 kts 332°
2026-05-06 19:34 42.48759 27.61158 36128 ft 437 kts 332°
2026-05-06 19:34 42.51401 27.59212 36406 ft 438 kts 331°
2026-05-06 19:35 42.54079 27.57235 36692 ft 439 kts 332°
2026-05-06 19:35 42.56797 27.55225 36914 ft 440 kts 332°
2026-05-06 19:35 42.59369 27.53058 37180 ft 441 kts 326°
2026-05-06 19:35 42.61899 27.50680 37450 ft 442 kts 326°
2026-05-06 19:36 42.64406 27.48264 37695 ft 442 kts 325°
2026-05-06 19:36 42.66905 27.45819 37945 ft 443 kts 325°
2026-05-06 19:36 42.69403 27.43358 38208 ft 443 kts 324°
2026-05-06 19:36 42.71892 27.40897 38478 ft 443 kts 324°
2026-05-06 19:37 42.74382 27.38435 38707 ft 443 kts 324°
2026-05-06 19:37 42.76875 27.35971 38896 ft 444 kts 324°
2026-05-06 19:37 42.79377 27.33497 39080 ft 444 kts 325°
2026-05-06 19:37 42.81034 27.31859 39181 ft 445 kts 324°
2026-05-06 19:38 42.84387 27.28543 39400 ft 446 kts 324°
2026-05-06 19:38 42.86896 27.26060 39556 ft 446 kts 324°
2026-05-06 19:38 42.89408 27.23572 39728 ft 446 kts 324°
2026-05-06 19:38 42.91916 27.21084 39910 ft 446 kts 324°
2026-05-06 19:39 42.94431 27.18587 40045 ft 447 kts 324°
2026-05-06 19:39 42.96951 27.16082 40074 ft 448 kts 324°
2026-05-06 19:39 43.01991 27.11064 40079 ft 448 kts 324°
2026-05-06 19:40 43.07029 27.06038 40066 ft 449 kts 324°
2026-05-06 19:40 43.12088 27.01039 40081 ft 448 kts 326°
2026-05-06 19:41 43.17286 26.96326 40074 ft 448 kts 327°
2026-05-06 19:41 43.22520 26.91675 40068 ft 448 kts 327°
2026-05-06 19:42 43.27696 26.87010 40068 ft 448 kts 326°
2026-05-06 19:42 43.32888 26.82279 40063 ft 447 kts 326°
2026-05-06 19:43 43.38069 26.77537 40054 ft 448 kts 326°
2026-05-06 19:43 43.43249 26.72786 40055 ft 448 kts 326°
2026-05-06 19:44 43.48434 26.68024 40046 ft 448 kts 326°
2026-05-06 19:44 43.53609 26.63262 40043 ft 447 kts 326°
2026-05-06 19:45 43.58778 26.58495 40041 ft 447 kts 326°
2026-05-06 19:45 43.63944 26.53721 40036 ft 447 kts 326°
2026-05-06 19:46 43.69112 26.48934 40032 ft 447 kts 326°
2026-05-06 19:46 43.74275 26.44144 40030 ft 447 kts 326°
2026-05-06 19:47 43.79445 26.39332 40026 ft 448 kts 326°
2026-05-06 19:47 43.84612 26.34517 40029 ft 448 kts 326°
2026-05-06 19:48 43.89784 26.29683 40021 ft 449 kts 326°
2026-05-06 19:48 43.94961 26.24838 40025 ft 449 kts 326°
2026-05-06 19:49 43.99779 26.19352 40016 ft 449 kts 315°
2026-05-06 19:49 44.04058 26.13111 40011 ft 449 kts 313°
2026-05-06 19:50 44.08271 26.06702 40014 ft 449 kts 313°
2026-05-06 19:50 44.12473 26.00271 40009 ft 449 kts 313°
2026-05-06 19:51 44.16687 25.93832 40005 ft 450 kts 313°
2026-05-06 19:51 44.20905 25.87390 40009 ft 450 kts 313°
2026-05-06 19:52 44.25126 25.80933 40003 ft 450 kts 313°
2026-05-06 19:52 44.28656 25.75522 40004 ft 450 kts 312°
2026-05-06 19:53 44.32834 25.69100 40008 ft 450 kts 312°
2026-05-06 19:53 44.37072 25.62573 40003 ft 450 kts 312°
2026-05-06 19:54 44.41246 25.56129 40006 ft 450 kts 312°
2026-05-06 19:54 44.45441 25.49636 40017 ft 449 kts 312°
2026-05-06 19:55 44.49630 25.43140 40003 ft 450 kts 312°
2026-05-06 19:55 44.53847 25.36584 40008 ft 450 kts 312°
2026-05-06 19:56 44.58002 25.30109 40003 ft 450 kts 312°
2026-05-06 19:56 44.62185 25.23577 40005 ft 450 kts 312°
2026-05-06 19:57 44.66369 25.17027 40003 ft 450 kts 312°
2026-05-06 19:57 44.70548 25.10468 40008 ft 450 kts 312°
2026-05-06 19:58 44.74726 25.03898 40010 ft 450 kts 311°
2026-05-06 19:58 44.78898 24.97320 40015 ft 449 kts 311°
2026-05-06 19:59 44.83058 24.90746 40011 ft 450 kts 311°
2026-05-06 19:59 44.87221 24.84152 40017 ft 450 kts 311°
2026-05-06 20:00 44.91353 24.77592 40020 ft 450 kts 311°
2026-05-06 20:00 44.95506 24.70984 40017 ft 449 kts 311°
2026-05-06 20:01 44.99637 24.64393 40025 ft 448 kts 311°
2026-05-06 20:01 45.03770 24.57784 40023 ft 448 kts 311°
2026-05-06 20:02 45.07896 24.51171 40023 ft 448 kts 311°
2026-05-06 20:02 45.12011 24.44557 40037 ft 447 kts 310°
2026-05-06 20:03 45.16112 24.37939 40029 ft 447 kts 311°
2026-05-06 20:03 45.20221 24.31315 40028 ft 447 kts 310°
2026-05-06 20:04 45.24327 24.24679 40026 ft 447 kts 310°
2026-05-06 20:04 45.28428 24.18029 40040 ft 447 kts 310°
2026-05-06 20:05 45.32512 24.11386 40034 ft 446 kts 310°
2026-05-06 20:05 45.36593 24.04739 40043 ft 446 kts 310°
2026-05-06 20:06 45.40667 23.98084 40041 ft 446 kts 310°
2026-05-06 20:06 45.44740 23.91414 40053 ft 446 kts 309°
2026-05-06 20:07 45.48779 23.84783 40048 ft 447 kts 309°
2026-05-06 20:07 45.52849 23.78086 40041 ft 447 kts 309°
2026-05-06 20:08 45.56916 23.71379 40044 ft 447 kts 309°
2026-05-06 20:08 45.60976 23.64667 40044 ft 447 kts 309°
2026-05-06 20:09 45.65034 23.57941 40035 ft 447 kts 309°
2026-05-06 20:09 45.69085 23.51212 40037 ft 446 kts 309°
2026-05-06 20:10 45.73133 23.44470 40026 ft 447 kts 309°
2026-05-06 20:10 45.77178 23.37716 40023 ft 447 kts 309°
2026-05-06 20:11 45.81220 23.30944 40014 ft 447 kts 309°
2026-05-06 20:11 45.85264 23.24164 40004 ft 448 kts 309°
2026-05-06 20:12 45.89308 23.17367 40004 ft 448 kts 309°
2026-05-06 20:12 45.93345 23.10563 40002 ft 448 kts 308°
2026-05-06 20:13 45.97380 23.03746 39996 ft 447 kts 308°
2026-05-06 20:13 46.01375 22.96977 39996 ft 447 kts 308°
2026-05-06 20:14 46.05398 22.90144 39992 ft 447 kts 308°
2026-05-06 20:14 46.09412 22.83309 39993 ft 447 kts 308°
2026-05-06 20:15 46.13430 22.76447 39993 ft 448 kts 308°
2026-05-06 20:15 46.17449 22.69567 39985 ft 448 kts 308°
2026-05-06 20:16 46.21465 22.62685 39993 ft 448 kts 308°
2026-05-06 20:16 46.25479 22.55786 39985 ft 448 kts 308°
2026-05-06 20:17 46.29489 22.48875 39987 ft 450 kts 307°
2026-05-06 20:17 46.33515 22.41916 39979 ft 451 kts 307°
2026-05-06 20:18 46.37540 22.34943 39974 ft 451 kts 307°
2026-05-06 20:18 46.41534 22.28006 39974 ft 451 kts 307°
2026-05-06 20:19 46.45476 22.20933 39976 ft 451 kts 302°
2026-05-06 20:19 46.48510 22.13023 39965 ft 449 kts 294°
2026-05-06 20:20 46.51199 22.04848 39954 ft 449 kts 293°
2026-05-06 20:20 46.53822 21.96623 39947 ft 449 kts 293°
2026-05-06 20:21 46.56444 21.88390 39951 ft 449 kts 292°
2026-05-06 20:21 46.59075 21.80139 39935 ft 451 kts 292°
2026-05-06 20:22 46.61717 21.71866 39938 ft 451 kts 292°
2026-05-06 20:22 46.64356 21.63578 39930 ft 451 kts 292°
2026-05-06 20:23 46.66986 21.55294 39937 ft 451 kts 292°
2026-05-06 20:23 46.70391 21.47546 39923 ft 459 kts 308°
2026-05-06 20:24 46.74773 21.40748 39920 ft 461 kts 311°
2026-05-06 20:24 46.79318 21.34132 39922 ft 462 kts 312°
2026-05-06 20:25 46.83872 21.27525 39915 ft 462 kts 311°
2026-05-06 20:25 46.88414 21.20869 39915 ft 464 kts 311°
2026-05-06 20:26 46.92930 21.14208 39910 ft 465 kts 311°
2026-05-06 20:26 46.97482 21.07475 39908 ft 465 kts 311°
2026-05-06 20:27 47.02021 21.00741 39909 ft 465 kts 311°
2026-05-06 20:27 47.06563 20.93988 39907 ft 465 kts 311°
2026-05-06 20:28 47.11110 20.87209 39903 ft 467 kts 311°
2026-05-06 20:28 47.15661 20.80407 39903 ft 467 kts 311°
2026-05-06 20:29 47.20207 20.73596 39908 ft 466 kts 311°
2026-05-06 20:29 47.24740 20.66787 39907 ft 466 kts 311°
2026-05-06 20:30 47.31529 20.56553 39905 ft 466 kts 311°
2026-05-06 20:31 47.36051 20.49714 39901 ft 466 kts 311°
2026-05-06 20:31 47.40564 20.42871 39903 ft 466 kts 311°
2026-05-06 20:32 47.45079 20.36008 39906 ft 466 kts 311°
2026-05-06 20:32 47.49594 20.29126 39887 ft 466 kts 310°
2026-05-06 20:33 47.54098 20.22244 39901 ft 465 kts 310°
2026-05-06 20:33 47.58598 20.15351 39903 ft 465 kts 310°
2026-05-06 20:34 47.63091 20.08447 39902 ft 465 kts 310°
2026-05-06 20:34 47.67587 20.01520 39907 ft 467 kts 310°
2026-05-06 20:35 47.72098 19.94553 39902 ft 468 kts 310°
2026-05-06 20:35 47.76609 19.87568 39904 ft 468 kts 310°
2026-05-06 20:36 47.81084 19.80622 39905 ft 468 kts 310°
2026-05-06 20:36 47.85608 19.73579 39906 ft 468 kts 310°
2026-05-06 20:37 47.90084 19.66591 39907 ft 469 kts 310°
2026-05-06 20:37 47.94586 19.59544 39904 ft 469 kts 310°
2026-05-06 20:38 47.99083 19.52486 39899 ft 469 kts 310°
2026-05-06 20:38 48.03582 19.45407 39906 ft 469 kts 310°
2026-05-06 20:39 48.08057 19.38314 39899 ft 469 kts 308°
2026-05-06 20:39 48.12033 19.30631 39901 ft 466 kts 303°
2026-05-06 20:40 48.15833 19.22770 39894 ft 466 kts 302°
2026-05-06 20:40 48.18981 19.16160 39896 ft 466 kts 302°
2026-05-06 20:41 48.22548 19.08655 39898 ft 465 kts 302°
2026-05-06 20:41 48.26305 19.00752 39885 ft 465 kts 302°
2026-05-06 20:42 48.30060 18.92837 39887 ft 465 kts 302°
2026-05-06 20:42 48.33804 18.84926 39883 ft 465 kts 302°
2026-05-06 20:43 48.37549 18.76988 39888 ft 464 kts 302°
2026-05-06 20:43 48.41276 18.69064 39875 ft 464 kts 302°
2026-05-06 20:44 48.44992 18.61142 39874 ft 463 kts 302°
2026-05-06 20:44 48.48699 18.53214 39865 ft 462 kts 302°
2026-05-06 20:45 48.52398 18.45279 39868 ft 463 kts 301°
2026-05-06 20:45 48.56095 18.37329 39858 ft 462 kts 301°
2026-05-06 20:46 48.59778 18.29385 39840 ft 462 kts 301°
2026-05-06 20:46 48.63459 18.21420 39836 ft 462 kts 301°
2026-05-06 20:47 48.67134 18.13443 39827 ft 462 kts 301°
2026-05-06 20:47 48.70804 18.05456 39831 ft 462 kts 301°
2026-05-06 20:48 48.74472 17.97447 39827 ft 463 kts 301°
2026-05-06 20:48 48.78136 17.89424 39824 ft 463 kts 301°
2026-05-06 20:49 48.81795 17.81388 39824 ft 463 kts 301°
2026-05-06 20:49 48.85448 17.73325 39805 ft 463 kts 300°
2026-05-06 20:50 48.88578 17.64809 39803 ft 462 kts 294°
2026-05-06 20:50 48.91479 17.56184 39802 ft 461 kts 293°
2026-05-06 20:51 48.94356 17.47469 39535 ft 462 kts 292°
2026-05-06 20:51 48.95797 17.43090 39291 ft 463 kts 292°
2026-05-06 20:51 48.97240 17.38705 39056 ft 463 kts 292°
2026-05-06 20:51 48.98682 17.34325 38829 ft 462 kts 292°
2026-05-06 20:52 49.00122 17.29951 38586 ft 462 kts 292°
2026-05-06 20:52 49.01557 17.25584 38336 ft 461 kts 292°
2026-05-06 20:52 49.02984 17.21216 38014 ft 459 kts 291°
2026-05-06 20:52 49.04352 17.16858 37497 ft 453 kts 290°
2026-05-06 20:53 49.05673 17.12511 36847 ft 451 kts 290°
2026-05-06 20:53 49.06976 17.08177 36222 ft 449 kts 290°
2026-05-06 20:53 49.08272 17.03856 35578 ft 447 kts 290°
2026-05-06 20:53 49.09564 16.99563 35081 ft 443 kts 289°
2026-05-06 20:54 49.10851 16.95309 34590 ft 440 kts 289°
2026-05-06 20:54 49.12128 16.91095 34084 ft 436 kts 289°
2026-05-06 20:54 49.13394 16.86919 33587 ft 432 kts 289°
2026-05-06 20:54 49.14650 16.82774 33066 ft 427 kts 289°
2026-05-06 20:55 49.15888 16.78684 32569 ft 422 kts 289°
2026-05-06 20:55 49.17110 16.74637 32099 ft 417 kts 289°
2026-05-06 20:55 49.18318 16.70629 31637 ft 412 kts 289°
2026-05-06 20:55 49.19510 16.66663 31167 ft 408 kts 289°
2026-05-06 20:56 49.20688 16.62736 30712 ft 405 kts 289°
2026-05-06 20:56 49.21840 16.58891 30277 ft 401 kts 288°
2026-05-06 20:56 49.23012 16.54970 29748 ft 399 kts 288°
2026-05-06 20:56 49.24161 16.51123 29251 ft 396 kts 288°
2026-05-06 20:57 49.25296 16.47317 28807 ft 391 kts 288°
2026-05-06 20:57 49.26403 16.43605 28361 ft 387 kts 288°
2026-05-06 20:57 49.27515 16.39868 27916 ft 385 kts 288°
2026-05-06 20:57 49.28619 16.36145 27443 ft 383 kts 288°
2026-05-06 20:58 49.29717 16.32438 27016 ft 381 kts 288°
2026-05-06 20:58 49.30805 16.28757 26575 ft 379 kts 288°
2026-05-06 20:58 49.31890 16.25089 26129 ft 376 kts 288°
2026-05-06 20:58 49.32965 16.21444 25709 ft 374 kts 288°
2026-05-06 20:59 49.34035 16.17816 25235 ft 373 kts 287°
2026-05-06 20:59 49.35097 16.14208 24794 ft 370 kts 287°
2026-05-06 20:59 49.36154 16.10610 24321 ft 368 kts 287°
2026-05-06 20:59 49.37201 16.07043 23889 ft 366 kts 287°
2026-05-06 21:00 49.38242 16.03486 23445 ft 364 kts 287°
2026-05-06 21:00 49.39276 15.99948 22939 ft 362 kts 287°
2026-05-06 21:00 49.40302 15.96435 22478 ft 359 kts 287°
2026-05-06 21:00 49.41332 15.92959 22064 ft 357 kts 289°
2026-05-06 21:01 49.42474 15.89577 21639 ft 357 kts 291°
2026-05-06 21:01 49.43649 15.86225 21191 ft 355 kts 291°
2026-05-06 21:01 49.44811 15.82889 20728 ft 353 kts 291°
2026-05-06 21:01 49.45958 15.79562 20300 ft 351 kts 291°
2026-05-06 21:02 49.47091 15.76258 19964 ft 347 kts 291°
2026-05-06 21:02 49.48209 15.72975 19604 ft 346 kts 291°
2026-05-06 21:02 49.49322 15.69699 19169 ft 345 kts 291°
2026-05-06 21:02 49.50429 15.66440 18732 ft 342 kts 291°
2026-05-06 21:03 49.51526 15.63200 18287 ft 340 kts 291°
2026-05-06 21:03 49.52615 15.59981 17836 ft 338 kts 291°
2026-05-06 21:03 49.53696 15.56780 17384 ft 335 kts 291°
2026-05-06 21:03 49.54769 15.53591 16940 ft 340 kts 291°
2026-05-06 21:04 49.55873 15.50296 16539 ft 351 kts 292°
2026-05-06 21:04 49.56983 15.46991 16088 ft 352 kts 292°
2026-05-06 21:04 49.58120 15.43613 15599 ft 350 kts 292°
2026-05-06 21:04 49.59222 15.40337 15154 ft 347 kts 292°
2026-05-06 21:05 49.60324 15.37050 14695 ft 344 kts 292°
2026-05-06 21:05 49.61416 15.33787 14244 ft 342 kts 293°
2026-05-06 21:05 49.62503 15.30533 13797 ft 341 kts 293°
2026-05-06 21:05 49.63585 15.27290 13333 ft 339 kts 293°
2026-05-06 21:06 49.64661 15.24062 12868 ft 337 kts 293°
2026-05-06 21:06 49.65727 15.20861 12408 ft 334 kts 294°
2026-05-06 21:06 49.66781 15.17694 11963 ft 329 kts 294°
2026-05-06 21:06 49.67815 15.14581 11542 ft 324 kts 294°
2026-05-06 21:07 49.68835 15.11505 11125 ft 319 kts 294°
2026-05-06 21:07 49.69839 15.08479 10723 ft 314 kts 294°
2026-05-06 21:07 49.70961 15.05664 10597 ft 302 kts 302°
2026-05-06 21:07 49.72200 15.03130 10481 ft 289 kts 304°
2026-05-06 21:08 49.73409 15.00731 10368 ft 277 kts 304°
2026-05-06 21:08 49.74588 14.98391 10055 ft 275 kts 304°
2026-05-06 21:08 49.75762 14.96049 9733 ft 282 kts 304°
2026-05-06 21:08 49.76986 14.93594 9505 ft 292 kts 304°
2026-05-06 21:09 49.78228 14.91112 9225 ft 290 kts 304°
2026-05-06 21:09 49.79466 14.88637 8728 ft 291 kts 304°
2026-05-06 21:09 49.80697 14.86173 8355 ft 288 kts 304°
2026-05-06 21:09 49.81911 14.83716 8012 ft 286 kts 304°
2026-05-06 21:10 49.83115 14.81265 7681 ft 285 kts 304°
2026-05-06 21:10 49.84312 14.78830 7355 ft 284 kts 304°
2026-05-06 21:10 49.85504 14.76404 7029 ft 282 kts 304°
2026-05-06 21:10 49.86692 14.73996 6699 ft 281 kts 304°
2026-05-06 21:11 49.87872 14.71595 6375 ft 279 kts 304°
2026-05-06 21:11 49.89047 14.69202 6040 ft 278 kts 305°
2026-05-06 21:11 49.90220 14.66820 5713 ft 277 kts 306°
2026-05-06 21:11 49.91374 14.64469 5396 ft 271 kts 306°
2026-05-06 21:12 49.92487 14.62200 5301 ft 257 kts 306°
2026-05-06 21:12 49.93540 14.60050 5208 ft 244 kts 306°
2026-05-06 21:12 49.94529 14.58032 5104 ft 232 kts 306°
2026-05-06 21:12 49.95481 14.56083 5018 ft 221 kts 306°
2026-05-06 21:13 49.96391 14.54232 4923 ft 209 kts 306°
2026-05-06 21:13 49.97245 14.52477 4836 ft 198 kts 306°
2026-05-06 21:13 49.98044 14.50832 4787 ft 183 kts 306°
2026-05-06 21:13 49.98795 14.49286 4578 ft 178 kts 307°
2026-05-06 21:14 49.99539 14.47758 4302 ft 176 kts 307°
2026-05-06 21:14 50.00277 14.46245 4076 ft 175 kts 308°
2026-05-06 21:14 50.01011 14.44751 3919 ft 171 kts 307°
2026-05-06 21:14 50.01722 14.43287 3670 ft 167 kts 307°
2026-05-06 21:15 50.02411 14.41865 3452 ft 162 kts 308°
2026-05-06 21:15 50.03081 14.40485 3238 ft 157 kts 308°
2026-05-06 21:15 50.03732 14.39141 3039 ft 155 kts 308°
2026-05-06 21:15 50.04367 14.37829 2824 ft 146 kts 309°
2026-05-06 21:16 50.04958 14.36609 2651 ft 139 kts 309°
2026-05-06 21:16 50.05537 14.35414 2459 ft 138 kts 309°
2026-05-06 21:16 50.06117 14.34216 2280 ft 139 kts 309°
2026-05-06 21:16 50.06698 14.33015 2086 ft 139 kts 309°
2026-05-06 21:17 50.07279 14.31814 1885 ft 139 kts 308°
2026-05-06 21:17 50.07869 14.30608 1707 ft 141 kts 308°
2026-05-06 21:17 50.08463 14.29378 1499 ft 144 kts 302°
2026-05-06 21:17 50.09076 14.28107 1378 ft 157 kts 307°
2026-05-06 21:18 50.09846 14.26592 2030 ft 190 kts 307°
2026-05-06 21:18 50.10663 14.24876 2998 ft 199 kts 308°
2026-05-06 21:18 50.11494 14.23122 3621 ft 205 kts 308°
2026-05-06 21:18 50.12388 14.21248 3930 ft 227 kts 307°
2026-05-06 21:19 50.13385 14.19167 4201 ft 250 kts 307°
2026-05-06 21:19 50.14452 14.16943 4663 ft 261 kts 307°
2026-05-06 21:19 50.15537 14.14703 4933 ft 263 kts 308°
2026-05-06 21:19 50.16950 14.12908 4991 ft 265 kts 334°
2026-05-06 21:20 50.18733 14.12182 4997 ft 267 kts 352°
2026-05-06 21:20 50.19984 14.11985 4993 ft 268 kts 354°
2026-05-06 21:20 50.22403 14.12639 4994 ft 271 kts 25°
2026-05-06 21:20 50.24003 14.14194 4991 ft 272 kts 35°
2026-05-06 21:21 50.25247 14.16407 4986 ft 274 kts 61°
2026-05-06 21:21 50.25909 14.19194 4983 ft 275 kts 75°
2026-05-06 21:21 50.25949 14.22161 4988 ft 276 kts 102°
2026-05-06 21:21 50.25198 14.24893 4988 ft 274 kts 122°
2026-05-06 21:22 50.24157 14.27395 4987 ft 275 kts 124°
2026-05-06 21:22 50.23077 14.29858 4981 ft 275 kts 125°
2026-05-06 21:22 50.21993 14.32318 4978 ft 275 kts 125°
2026-05-06 21:22 50.20910 14.34785 4977 ft 276 kts 125°
2026-05-06 21:23 50.19828 14.37249 4983 ft 275 kts 125°
2026-05-06 21:23 50.18750 14.39716 4980 ft 275 kts 125°
2026-05-06 21:23 50.17674 14.42177 4980 ft 275 kts 125°
2026-05-06 21:23 50.16600 14.44635 4973 ft 274 kts 125°
2026-05-06 21:24 50.15522 14.47099 4994 ft 275 kts 125°
2026-05-06 21:24 50.14448 14.49554 4992 ft 275 kts 125°
2026-05-06 21:24 50.13380 14.51989 4897 ft 267 kts 125°
2026-05-06 21:24 50.12337 14.54355 4476 ft 266 kts 124°
2026-05-06 21:25 50.11269 14.56741 4087 ft 270 kts 125°
2026-05-06 21:25 50.10184 14.59137 3996 ft 271 kts 125°
2026-05-06 21:25 50.09110 14.61500 3990 ft 271 kts 125°
2026-05-06 21:25 50.08032 14.63869 3994 ft 261 kts 125°
2026-05-06 21:26 50.07019 14.66096 3999 ft 243 kts 125°
2026-05-06 21:26 50.06062 14.68162 3994 ft 226 kts 128°
2026-05-06 21:26 50.04873 14.69555 3995 ft 208 kts 161°
2026-05-06 21:26 50.03489 14.69636 3997 ft 199 kts 198°
2026-05-06 21:27 50.02345 14.68483 4001 ft 197 kts 228°
2026-05-06 21:27 50.01470 14.66838 3990 ft 198 kts 234°
2026-05-06 21:27 50.00646 14.65113 3988 ft 199 kts 235°
2026-05-06 21:27 49.99837 14.63367 3985 ft 199 kts 237°
2026-05-06 21:28 49.99447 14.61350 3990 ft 196 kts 273°
2026-05-06 21:28 49.99660 14.59966 4008 ft 201 kts 295°
2026-05-06 21:28 50.00404 14.57948 3986 ft 225 kts 304°
2026-05-06 21:28 50.01318 14.55920 3979 ft 232 kts 309°
2026-05-06 21:29 50.02463 14.54153 3991 ft 232 kts 315°
2026-05-06 21:29 50.03612 14.52384 3993 ft 232 kts 315°
2026-05-06 21:29 50.04750 14.50608 3993 ft 232 kts 315°
2026-05-06 21:29 50.05872 14.48850 3994 ft 232 kts 315°
2026-05-06 21:30 50.07010 14.47069 3991 ft 232 kts 315°
2026-05-06 21:30 50.08162 14.45262 3993 ft 232 kts 315°
2026-05-06 21:30 50.09283 14.43506 3994 ft 232 kts 315°
2026-05-06 21:30 50.10420 14.41720 3993 ft 232 kts 315°
2026-05-06 21:31 50.11557 14.39940 3994 ft 232 kts 315°
2026-05-06 21:31 50.12692 14.38165 3994 ft 232 kts 315°
2026-05-06 21:31 50.13831 14.36383 3996 ft 232 kts 315°
2026-05-06 21:31 50.14968 14.34601 3994 ft 232 kts 315°
2026-05-06 21:32 50.16103 14.32810 3993 ft 232 kts 315°
2026-05-06 21:32 50.18343 14.29210 3982 ft 231 kts 314°
2026-05-06 21:32 50.19465 14.27413 3982 ft 231 kts 315°
2026-05-06 21:33 50.20587 14.25619 3993 ft 231 kts 315°
2026-05-06 21:33 50.21706 14.23819 3988 ft 231 kts 315°
2026-05-06 21:33 50.22824 14.22026 3992 ft 230 kts 315°
2026-05-06 21:33 50.23940 14.20234 3990 ft 230 kts 315°
2026-05-06 21:34 50.25039 14.18469 3989 ft 219 kts 315°
2026-05-06 21:34 50.26050 14.16850 3992 ft 203 kts 315°
2026-05-06 21:34 50.27008 14.15315 3997 ft 194 kts 315°
2026-05-06 21:34 50.27850 14.13749 3996 ft 178 kts 298°
2026-05-06 21:35 50.27995 14.11921 4003 ft 175 kts 257°
2026-05-06 21:35 50.27347 14.10323 4002 ft 177 kts 224°
2026-05-06 21:35 50.26369 14.09118 3849 ft 183 kts 216°
2026-05-06 21:35 50.25304 14.07975 3547 ft 184 kts 215°
2026-05-06 21:36 50.24255 14.06872 3501 ft 181 kts 214°
2026-05-06 21:36 50.23208 14.05775 3492 ft 181 kts 215°
2026-05-06 21:36 50.22132 14.04755 3485 ft 182 kts 203°
2026-05-06 21:36 50.20886 14.04474 3494 ft 181 kts 180°
2026-05-06 21:37 50.19760 14.05240 3494 ft 180 kts 130°
2026-05-06 21:37 50.19111 14.06871 3499 ft 177 kts 117°
2026-05-06 21:37 50.18500 14.08456 3504 ft 165 kts 121°
2026-05-06 21:37 50.17846 14.09907 3492 ft 163 kts 124°
2026-05-06 21:38 50.17172 14.11311 3312 ft 160 kts 125°
2026-05-06 21:38 50.16502 14.12700 3094 ft 160 kts 124°
2026-05-06 21:38 50.15838 14.14080 2887 ft 158 kts 124°
2026-05-06 21:38 50.15195 14.15418 2672 ft 150 kts 124°
2026-05-06 21:39 50.14582 14.16692 2471 ft 143 kts 124°
2026-05-06 21:39 50.13996 14.17911 2289 ft 139 kts 123°
2026-05-06 21:39 50.13415 14.19118 2096 ft 140 kts 124°
2026-05-06 21:39 50.12836 14.20321 1889 ft 138 kts 126°
2026-05-06 21:40 50.12264 14.21507 1708 ft 135 kts 128°
2026-05-06 21:40 50.11709 14.22671 1499 ft 131 kts 126°
2026-05-06 21:40 50.11159 14.23808 1332 ft 131 kts 128°
2026-05-06 21:40 50.10607 14.24938 1169 ft 131 kts 128°
2026-05-06 21:41 50.10161 14.25854 1194 ft 68 kts 126°
2026-05-06 21:41 50.09966 14.26263 1203 ft 41 kts 127°
2026-05-06 21:41 50.09876 14.26452 1208 ft 0 kts 125°
2026-05-06 21:41 50.09866 14.26502 1211 ft 6 kts 96°
2026-05-06 21:42 50.09869 14.26562 1213 ft 8 kts 84°
2026-05-06 21:42 50.09876 14.26658 1214 ft 10 kts 84°
2026-05-06 21:42 50.09887 14.26788 1212 ft 14 kts 81°
2026-05-06 21:42 50.09903 14.26954 1212 ft 17 kts 82°
2026-05-06 21:43 50.09916 14.27104 1209 ft 10 kts 77°
2026-05-06 21:43 50.09942 14.27121 1206 ft 4 kts 340°
2026-05-06 21:43 50.10001 14.27010 1202 ft 22 kts 307°
2026-05-06 21:43 50.10105 14.26796 1190 ft 27 kts 306°
2026-05-06 21:44 50.10227 14.26540 1178 ft 27 kts 307°
2026-05-06 21:44 50.10334 14.26320 1174 ft 27 kts 307°
2026-05-06 21:44 50.10441 14.26098 1171 ft 22 kts 307°
2026-05-06 21:44 50.10483 14.26011 1181 ft 11 kts 307°
2026-05-06 21:45 50.10554 14.25994 1175 ft 13 kts 30°
2026-05-06 21:45 50.10620 14.26060 1176 ft 5 kts 33°
2026-05-06 21:45 50.10661 14.26101 1175 ft 9 kts 33°
2026-05-06 21:45 50.10720 14.26164 1175 ft 12 kts 34°
2026-05-06 21:46 50.10791 14.26240 1175 ft 10 kts 34°
2026-05-06 21:46 50.10820 14.26307 1175 ft 6 kts 80°
2026-05-06 21:46 50.10808 14.26379 1179 ft 6 kts 118°
2026-05-06 21:46 50.10788 14.26427 1180 ft 4 kts 124°
2026-05-06 21:47 50.10779 14.26476 1180 ft 5 kts 86°
2026-05-06 21:47 50.10804 14.26523 1175 ft 7 kts 32°
2026-05-06 21:47 50.10814 14.26532 1180 ft 0 kts 33°